NQ2U-13 Weather Reports


time (UTC)temp
C
wind
direction
speed
KPH
gust
KPH
rain 1hr
cm
rain 24hr
cm
rain mn
cm
humidity
%
barometer
mb
20260504050530 6 0 0.0 3.2 0.00 0.00 0.00 72 1009.3
20260504045529 6 0 0.0 3.2 0.00 0.00 0.00 72 1009.4
20260504045029 6 0 0.0 3.2 0.00 0.00 0.00 71 1009.5
20260504044546 6 168 0.0 3.2 0.00 0.00 0.00 71 1009.5
20260504044029 6 0 0.0 4.8 0.00 0.00 0.00 71 1009.6
20260504043530 6 0 0.0 4.8 0.00 0.00 0.00 71 1009.8
20260504043049 6 0 0.0 3.2 0.00 0.00 0.00 71 1009.8
20260504042529 6 0 0.0 3.2 0.00 0.00 0.00 71 1009.9
20260504042030 6 0 0.0 3.2 0.00 0.00 0.00 71 1009.8
20260504041542 6 0 0.0 1.6 0.00 0.00 0.00 72 1010.0
20260504041029 6 0 0.0 3.2 0.00 0.00 0.00 72 1010.0
20260504040529 6 0 0.0 3.2 0.00 0.00 0.00 72 1010.0
20260504040049 6 0 0.0 3.2 0.00 0.00 0.00 72 1009.9
20260504035535 6 0 0.0 3.2 0.00 0.00 0.00 72 1010.0
20260504035029 6 0 0.0 3.2 0.00 0.00 0.00 72 1009.9
20260504034546 6 0 0.0 3.2 0.00 0.00 0.00 72 1009.8
20260504034030 6 0 0.0 3.2 0.00 0.00 0.00 72 1009.9
20260504033529 6 0 0.0 1.6 0.00 0.00 0.00 71 1009.9
20260504033044 6 0 0.0 1.6 0.00 0.00 0.00 71 1010.0
20260504032529 6 0 0.0 1.6 0.00 0.00 0.00 71 1009.9
20260504032026 6 0 0.0 1.6 0.00 0.00 0.00 71 1009.9
20260504031547 6 0 0.0 4.8 0.00 0.00 0.00 70 1009.8
20260504031029 6 0 0.0 4.8 0.00 0.00 0.00 70 1009.8
20260504030529 6 145 0.0 4.8 0.00 0.00 0.00 70 1009.8
20260504030040 6 0 0.0 1.6 0.00 0.00 0.00 70 1009.8
20260504025529 6 0 0.0 3.2 0.00 0.00 0.00 70 1009.8
20260504025032 6 0 0.0 3.2 0.00 0.00 0.00 70 1009.9
20260504024542 6 0 0.0 4.8 0.00 0.00 0.00 70 1009.8
20260504024029 6 191 0.0 4.8 0.00 0.00 0.00 70 1009.8
20260504023529 6 0 0.0 1.6 0.00 0.00 0.00 70 1009.7
20260504023045 6 0 0.0 3.2 0.00 0.00 0.00 70 1009.7
20260504022529 6 180 0.0 3.2 0.00 0.00 0.00 70 1009.7
20260504022029 6 208 0.0 1.6 0.00 0.00 0.00 69 1009.7
20260504021542 5 0 0.0 3.2 0.00 0.00 0.00 70 1009.6
20260504021028 5 0 0.0 3.2 0.00 0.00 0.00 70 1009.7
20260504020525 5 0 0.0 3.2 0.00 0.00 0.00 70 1009.6
20260504020043 5 0 0.0 0.0 0.00 0.00 0.00 70 1009.7
20260504015526 5 0 0.0 0.0 0.00 0.00 0.00 69 1009.6
20260504015031 6 0 0.0 0.0 0.00 0.00 0.00 69 1009.8
20260504014539 6 0 0.0 0.0 0.00 0.00 0.00 69 1009.7
20260504014031 6 0 0.0 0.0 0.00 0.00 0.00 70 1009.7
20260504013531 6 0 0.0 0.0 0.00 0.00 0.00 69 1009.7
20260504013046 6 0 0.0 0.0 0.00 0.00 0.00 68 1009.6
20260504012531 6 0 0.0 1.6 0.00 0.00 0.00 67 1009.5
20260504012031 6 0 0.0 1.6 0.00 0.00 0.00 67 1009.5
20260504011544 6 0 0.0 1.6 0.00 0.00 0.00 66 1009.6
20260504011030 6 0 0.0 1.6 0.00 0.00 0.00 65 1009.5
20260504010531 6 0 0.0 1.6 0.00 0.00 0.00 65 1009.5
20260504010043 7 329 0.0 1.6 0.00 0.00 0.00 64 1009.3
20260504005531 7 0 0.0 0.0 0.00 0.00 0.00 63 1009.2
20260504005029 7 0 0.0 0.0 0.00 0.00 0.00 62 1009.2
20260504004545 7 0 0.0 0.0 0.00 0.00 0.00 62 1009.2
20260504004025 8 0 0.0 0.0 0.00 0.00 0.00 60 1009.2
20260504003529 8 0 0.0 0.0 0.00 0.00 0.00 59 1009.1
20260504003046 8 0 0.0 1.6 0.00 0.00 0.00 58 1009.1
20260504002529 9 0 0.0 1.6 0.00 0.00 0.00 56 1009.0
20260504002030 9 0 0.0 3.2 0.00 0.00 0.00 54 1009.0
20260504001546 10 0 0.0 3.2 0.00 0.00 0.00 52 1009.0
20260504001029 10 0 0.0 4.8 0.00 0.00 0.00 52 1008.9
20260504000533 10 0 1.6 4.8 0.00 0.00 0.00 50 1008.9
20260504000112 10 0 0.0 4.8 0.00 0.00 0.00 50 1008.9
20260503235530 10 0 0.0 4.8 0.00 0.00 0.00 48 1008.8
20260503235030 11 0 0.0 3.2 0.00 0.00 0.00 48 1008.9
20260503234550 11 0 0.0 1.6 0.00 0.00 0.00 48 1008.9
20260503234029 11 0 0.0 3.2 0.00 0.00 0.00 47 1008.8
20260503233525 11 0 0.0 4.8 0.00 0.00 0.00 46 1008.7
20260503233038 11 4 1.6 8.0 0.00 0.00 0.00 47 1008.7
20260503232525 11 275 0.0 8.0 0.00 0.00 0.00 46 1008.7
20260503232029 11 300 1.6 8.0 0.00 0.00 0.00 45 1008.6
20260503231541 11 331 1.6 8.0 0.00 0.00 0.00 44 1008.5
20260503231029 11 0 0.0 14.5 0.00 0.00 0.00 43 1008.4
20260503230532 11 304 1.6 14.5 0.00 0.00 0.00 44 1008.2
20260503230046 11 287 1.6 14.5 0.00 0.00 0.00 43 1008.3
20260503225529 11 302 4.8 14.5 0.00 0.00 0.00 42 1008.2
20260503225029 11 113 1.6 8.0 0.00 0.00 0.00 42 1008.1
20260503224543 11 208 1.6 8.0 0.00 0.00 0.00 40 1008.1
20260503224029 12 228 0.0 12.9 0.00 0.00 0.00 39 1008.1
20260503223531 12 13 3.2 12.9 0.00 0.00 0.00 40 1008.1
20260503223042 12 304 0.0 9.7 0.00 0.00 0.00 39 1008.2
20260503222530 12 307 3.2 17.7 0.00 0.00 0.00 40 1008.1
20260503222025 12 347 3.2 17.7 0.00 0.00 0.00 38 1008.0
20260503221549 11 330 6.4 16.1 0.00 0.00 0.00 38 1008.0
20260503221029 12 17 3.2 16.1 0.00 0.00 0.00 40 1007.9
20260503220530 12 63 3.2 16.1 0.00 0.00 0.00 39 1008.0
20260503220048 12 280 4.8 14.5 0.00 0.00 0.00 36 1007.9
20260503215529 12 333 4.8 14.5 0.00 0.00 0.00 37 1007.9
20260503215026 12 173 3.2 17.7 0.00 0.00 0.00 38 1007.9
20260503214550 13 356 6.4 17.7 0.00 0.00 0.00 36 1007.9
20260503214031 13 31 3.2 14.5 0.00 0.00 0.00 36 1007.8
20260503213531 13 230 4.8 19.3 0.00 0.00 0.00 35 1007.8
20260503213041 13 13 6.4 25.7 0.00 0.00 0.00 34 1007.8
20260503212535 12 7 8.0 25.7 0.00 0.00 0.00 36 1007.9
20260503212032 13 38 6.4 25.7 0.00 0.00 0.00 35 1007.9
20260503211547 12 309 3.2 20.9 0.00 0.00 0.00 33 1007.7
20260503211032 13 310 6.4 20.9 0.00 0.00 0.00 32 1007.8
20260503210531 13 331 4.8 27.4 0.00 0.00 0.00 32 1007.8
20260503210045 13 13 4.8 27.4 0.00 0.00 0.00 31 1007.8
20260503205531 13 293 8.0 17.7 0.00 0.00 0.00 31 1007.9
20260503205031 13 63 4.8 17.7 0.00 0.00 0.00 36 1007.6
20260503204544 13 29 6.4 17.7 0.00 0.00 0.00 34 1007.7
20260503204032 13 3 3.2 19.3 0.00 0.00 0.00 32 1007.7
20260503203532 13 352 4.8 29.0 0.00 0.00 0.00 33 1007.9
20260503203104 12 128 8.0 29.0 0.00 0.00 0.00 33 1008.1
20260503202532 13 325 3.2 16.1 0.00 0.00 0.00 36 1007.9
20260503202032 12 246 6.4 20.9 0.00 0.00 0.00 34 1008.1
20260503201546 12 63 6.4 22.5 0.00 0.00 0.00 37 1008.0
20260503201033 12 332 8.0 22.5 0.00 0.00 0.00 37 1008.0
20260503200531 12 93 8.0 19.3 0.00 0.00 0.00 37 1008.2
20260503200046 12 323 6.4 19.3 0.00 0.00 0.00 34 1008.5
20260503195531 12 320 4.8 19.3 0.00 0.00 0.00 36 1008.4
20260503195031 12 320 4.8 19.3 0.00 0.00 0.00 37 1008.5
20260503194552 12 302 8.0 17.7 0.00 0.00 0.00 33 1008.7
20260503194031 12 358 4.8 25.7 0.00 0.00 0.00 36 1008.7
20260503193532 13 325 3.2 25.7 0.00 0.00 0.00 38 1008.8
20260503193047 12 94 6.4 19.3 0.00 0.00 0.00 38 1008.7
20260503192532 12 347 6.4 17.7 0.00 0.00 0.00 37 1008.8
20260503192032 12 331 6.4 17.7 0.00 0.00 0.00 36 1008.9
20260503191549 12 356 3.2 17.7 0.00 0.00 0.00 40 1008.8
20260503191031 11 333 8.0 19.3 0.00 0.00 0.00 37 1008.9
20260503190531 11 290 6.4 19.3 0.00 0.00 0.00 36 1009.1
20260503190048 12 354 6.4 22.5 0.00 0.00 0.00 41 1009.0
20260503185532 12 38 6.4 25.7 0.00 0.00 0.00 41 1009.0
20260503185033 11 329 4.8 25.7 0.00 0.00 0.00 40 1009.0
20260503184549 10 21 6.4 16.1 0.00 0.00 0.00 42 1009.2
20260503184031 11 17 6.4 17.7 0.00 0.00 0.00 41 1009.3
20260503183532 11 180 4.8 24.1 0.00 0.00 0.00 40 1009.1
20260503183049 11 42 6.4 24.1 0.00 0.00 0.00 43 1009.2
20260503182531 11 313 4.8 24.1 0.00 0.00 0.00 41 1009.5
20260503182031 10 345 4.8 19.3 0.00 0.00 0.00 44 1009.4
20260503181546 11 308 4.8 19.3 0.00 0.00 0.00 42 1009.6
20260503181031 10 4 4.8 20.9 0.00 0.00 0.00 45 1009.6
20260503180532 10 324 6.4 20.9 0.00 0.00 0.00 42 1009.6
20260503180048 10 319 6.4 20.9 0.00 0.00 0.00 44 1009.7
20260503175532 10 333 4.8 16.1 0.00 0.00 0.00 42 1009.7
20260503175032 10 250 6.4 16.1 0.00 0.00 0.00 41 1009.8
20260503174545 10 329 4.8 16.1 0.00 0.00 0.00 44 1009.8
20260503174032 10 292 4.8 16.1 0.00 0.00 0.00 46 1009.9
20260503173532 10 322 4.8 14.5 0.00 0.00 0.00 45 1009.9
20260503173053 10 304 3.2 14.5 0.00 0.00 0.00 45 1010.0
20260503172530 9 0 1.6 14.5 0.00 0.00 0.00 47 1010.0
20260503172031 8 339 4.8 20.9 0.00 0.00 0.00 45 1010.2
20260503171542 8 184 6.4 20.9 0.00 0.00 0.00 46 1010.2
20260503171032 8 321 6.4 14.5 0.00 0.00 0.00 46 1010.3
20260503170532 8 23 4.8 19.3 0.00 0.00 0.00 45 1010.2
20260503150531 7 278 3.2 14.5 0.00 0.00 0.00 49 1010.4
20260503131030 6 27 8.0 22.5 0.00 0.00 0.00 57 1010.9
20260503130531 6 358 6.4 19.3 0.00 0.00 0.00 59 1010.9
20260503110531 3 0 0.0 0.0 0.00 0.00 0.00 77 1010.6
20260503081545 1 0 0.0 3.2 0.00 0.00 0.00 84 1010.4
20260503081029 1 0 0.0 1.6 0.00 0.00 0.00 84 1010.4
20260503080530 1 0 0.0 1.6 0.00 0.00 0.00 84 1010.4
20260503072530 1 0 0.0 3.2 0.00 0.00 0.00 83 1010.6
20260503072030 1 0 0.0 3.2 0.00 0.00 0.00 84 1010.8
20260503071541 1 144 0.0 0.0 0.00 0.00 0.00 84 1010.7
20260503071030 1 0 0.0 1.6 0.00 0.00 0.00 84 1010.8
20260503070529 0 0 0.0 1.6 0.00 0.00 0.00 85 1010.8